Location: Jaworzyna Śląska
(50.9128°N, 16.4318°E)
Time: 01:59:50
(UTC+01:00)

ISS - Pass Details

Date: 30 January 2019
Orbit: 403 x 411 km, 51.6° (Epoch: 22 February)

Event Time Altitude Azimuth Distance (km) Brightness Sun altitude
Rises 17:24:11 0° 248° (WSW) 2,328 2.8 -7.0°
Reaches altitude 10° 17:26:16 10° 247° (WSW) 1,471 0.8 -7.3°
Maximum altitude 17:29:33 72° 163° (SSE) 434 -3.7 -7.8°
Enters shadow 17:32:41 11° 79° (ENE) 1,405 -1.8 -8.3°
